• In Belarus
  • List of Countries
  • For 7 days
  • Water Temperature
  • Satellite Maps
  • Weather Map
  • Weather Widgets
  • user-avatar
    Login

    Hourly Weather Kobdo

    Today, 17 January, Thursday

    Time Temperature Precipitation Wind Pressure Humidity
    00:00 -17°C° 0 mm 2 mps 586 mmHg 60%
    01:00 -17°C° 0 mm 2 mps 586 mmHg 62%
    02:00 -15°C° 0 mm 1 mps 586 mmHg 64%
    03:00 -15°C° 0 mm 1 mps 586 mmHg 66%
    04:00 -15°C° 0 mm 1 mps 586 mmHg 67%
    05:00 -15°C° 0 mm 1 mps 586 mmHg 69%
    06:00 -16°C° 0 mm 1 mps 586 mmHg 73%
    07:00 -16°C° 0 mm 1 mps 587 mmHg 73%
    08:00 -15°C° 0 mm 1 mps 587 mmHg 72%
    09:00 -15°C° 0 mm 1 mps 588 mmHg 72%
    10:00 -14°C° 0 mm 1 mps 588 mmHg 70%
    11:00 -13°C° 0 mm 1 mps 588 mmHg 68%
    12:00 -12°C° 0 mm 1 mps 589 mmHg 66%
    13:00 -13°C° 0 mm 0 mps 588 mmHg 68%
    14:00 -13°C° 0 mm 0 mps 588 mmHg 71%
    15:00 -13°C° 0 mm 0 mps 588 mmHg 74%
    16:00 -14°C° 0 mm 0 mps 588 mmHg 75%
    17:00 -15°C° 0 mm 0 mps 588 mmHg 76%
    18:00 -16°C° 0 mm 0 mps 588 mmHg 78%
    19:00 -16°C° 0 mm 0 mps 588 mmHg 77%
    20:00 -16°C° 0 mm 0 mps 588 mmHg 77%
    21:00 -16°C° 0 mm 0 mps 588 mmHg 77%
    22:00 -16°C° 0 mm 0 mps 588 mmHg 78%
    23:00 -16°C° 0 mm 0 mps 589 mmHg 78%

    Tomorrow, 18 January, Friday

    Time Temperature Precipitation Wind Pressure Humidity
    00:00 -16°C° 0 mm 0 mps 589 mmHg 79%
    01:00 -17°C° 0 mm 0 mps 589 mmHg 79%
    02:00 -17°C° 0 mm 0 mps 589 mmHg 80%
    03:00 -17°C° 0 mm 0 mps 588 mmHg 81%
    04:00 -17°C° 0 mm 0 mps 588 mmHg 81%
    05:00 -18°C° 0 mm 0 mps 588 mmHg 82%
    06:00 -18°C° 0 mm 0 mps 588 mmHg 82%
    07:00 -18°C° 0 mm 0 mps 589 mmHg 82%
    08:00 -17°C° 0 mm 0 mps 589 mmHg 82%
    09:00 -17°C° 0 mm 0 mps 590 mmHg 82%
    10:00 -16°C° 0 mm 1 mps 590 mmHg 80%
    11:00 -15°C° 0 mm 1 mps 590 mmHg 78%
    12:00 -14°C° 0 mm 1 mps 591 mmHg 75%
    13:00 -14°C° 0 mm 1 mps 591 mmHg 77%
    14:00 -15°C° 0 mm 1 mps 591 mmHg 79%
    15:00 -15°C° 0 mm 1 mps 590 mmHg 81%
    16:00 -16°C° 0 mm 1 mps 591 mmHg 82%
    17:00 -16°C° 0 mm 1 mps 591 mmHg 82%
    18:00 -17°C° 0 mm 1 mps 591 mmHg 83%
    19:00 -17°C° 0 mm 1 mps 591 mmHg 82%
    20:00 -18°C° 0 mm 1 mps 591 mmHg 81%
    21:00 -18°C° 0 mm 1 mps 592 mmHg 81%
    22:00 -18°C° 0 mm 1 mps 592 mmHg 80%
    23:00 -18°C° 0 mm 1 mps 592 mmHg 79%

    Day after tomorrow, 19 January, Saturday

    Time Temperature Precipitation Wind Pressure Humidity
    00:00 -18°C° 0 mm 1 mps 592 mmHg 78%
    01:00 -18°C° 0 mm 1 mps 592 mmHg 77%
    02:00 -18°C° 0 mm 1 mps 592 mmHg 76%
    03:00 -18°C° 0 mm 1 mps 592 mmHg 75%
    04:00 -20°C° 0 mm 2 mps 592 mmHg 73%
    05:00 -20°C° 0 mm 2 mps 593 mmHg 72%
    06:00 -20°C° 0 mm 2 mps 593 mmHg 70%
    07:00 -20°C° 0 mm 2 mps 593 mmHg 67%
    08:00 -19°C° 0 mm 2 mps 594 mmHg 64%
    09:00 -19°C° 0 mm 2 mps 594 mmHg 61%
    10:00 -17°C° 0 mm 2 mps 595 mmHg 58%
    11:00 -14°C° 0 mm 1 mps 595 mmHg 56%
    12:00 -12°C° 0 mm 1 mps 596 mmHg 54%
    13:00 -12°C° 0 mm 1 mps 595 mmHg 55%
    14:00 -13°C° 0 mm 1 mps 595 mmHg 56%
    15:00 -13°C° 0 mm 1 mps 595 mmHg 57%
    16:00 -16°C° 0 mm 2 mps 595 mmHg 54%
    17:00 -16°C° 0 mm 2 mps 595 mmHg 50%
    18:00 -17°C° 0 mm 2 mps 595 mmHg 47%
    19:00 -17°C° 0 mm 2 mps 595 mmHg 43%
    20:00 -18°C° 0 mm 3 mps 594 mmHg 39%
    21:00 -19°C° 0 mm 3 mps 594 mmHg 35%
    22:00 -19°C° 0 mm 3 mps 594 mmHg 32%
    23:00 -19°C° 0 mm 3 mps 594 mmHg 30%

    20 January, Sunday

    Time Temperature Precipitation Wind Pressure Humidity
    00:00 -19°C° 0 mm 3 mps 594 mmHg 27%
    01:00 -19°C° 0 mm 3 mps 594 mmHg 27%
    02:00 -19°C° 0 mm 3 mps 594 mmHg 26%
    03:00 -19°C° 0 mm 3 mps 594 mmHg 26%
    04:00 -19°C° 0 mm 3 mps 594 mmHg 26%
    05:00 -19°C° 0 mm 3 mps 594 mmHg 26%
    06:00 -19°C° 0 mm 3 mps 593 mmHg 27%
    07:00 -18°C° 0 mm 3 mps 594 mmHg 27%
    08:00 -18°C° 0 mm 3 mps 594 mmHg 28%
    09:00 -17°C° 0 mm 3 mps 594 mmHg 29%
    10:00 -15°C° 0 mm 2 mps 594 mmHg 33%
    11:00 -13°C° 0 mm 2 mps 594 mmHg 37%
    12:00 -10°C° 0 mm 2 mps 594 mmHg 41%
    13:00 -12°C° 0 mm 2 mps 593 mmHg 41%
    14:00 -12°C° 0 mm 2 mps 593 mmHg 42%
    15:00 -12°C° 0 mm 2 mps 592 mmHg 43%
    16:00 -13°C° 0 mm 2 mps 592 mmHg 41%
    17:00 -14°C° 0 mm 2 mps 592 mmHg 38%
    18:00 -15°C° 0 mm 2 mps 592 mmHg 36%
    19:00 -15°C° 0 mm 2 mps 591 mmHg 33%
    20:00 -15°C° 0 mm 2 mps 591 mmHg 30%
    21:00 -15°C° 0 mm 2 mps 591 mmHg 27%
    22:00 -15°C° 0 mm 2 mps 591 mmHg 25%
    23:00 -15°C° 0 mm 2 mps 590 mmHg 23%

    21 January, Monday

    Time Temperature Precipitation Wind Pressure Humidity
    00:00 -15°C° 0 mm 2 mps 590 mmHg 21%
    01:00 -15°C° 0 mm 2 mps 590 mmHg 20%
    02:00 -15°C° 0 mm 2 mps 590 mmHg 19%
    03:00 -15°C° 0 mm 2 mps 590 mmHg 18%
    04:00 -16°C° 0 mm 2 mps 589 mmHg 18%
    05:00 -16°C° 0 mm 2 mps 589 mmHg 17%
    06:00 -16°C° 0 mm 2 mps 589 mmHg 16%
    07:00 -15°C° 0 mm 2 mps 589 mmHg 17%
    08:00 -15°C° 0 mm 2 mps 589 mmHg 18%
    09:00 -15°C° 0 mm 2 mps 590 mmHg 18%
    10:00 -13°C° 0 mm 2 mps 590 mmHg 24%
    11:00 -12°C° 0 mm 2 mps 590 mmHg 30%
    12:00 -9°C° 0 mm 2 mps 590 mmHg 36%
    13:00 -10°C° 0 mm 2 mps 590 mmHg 37%
    14:00 -10°C° 0 mm 2 mps 590 mmHg 38%
    15:00 -10°C° 0 mm 2 mps 589 mmHg 39%
    16:00 -12°C° 0 mm 2 mps 589 mmHg 37%
    17:00 -13°C° 0 mm 2 mps 589 mmHg 35%
    18:00 -16°C° 0 mm 3 mps 589 mmHg 33%
    19:00 -16°C° 0 mm 3 mps 589 mmHg 31%
    20:00 -16°C° 0 mm 3 mps 589 mmHg 30%
    21:00 -17°C° 0 mm 3 mps 588 mmHg 28%
    22:00 -18°C° 0 mm 4 mps 588 mmHg 28%
    23:00 -18°C° 0 mm 4 mps 588 mmHg 29%

    22 January, Tuesday

    Time Temperature Precipitation Wind Pressure Humidity
    00:00 -18°C° 0 mm 4 mps 588 mmHg 29%
    01:00 -18°C° 0 mm 4 mps 588 mmHg 30%
    02:00 -19°C° 0 mm 4 mps 588 mmHg 30%
    03:00 -19°C° 0 mm 4 mps 588 mmHg 31%
    04:00 -19°C° 0 mm 4 mps 588 mmHg 32%
    05:00 -19°C° 0 mm 4 mps 588 mmHg 33%
    06:00 -19°C° 0 mm 4 mps 588 mmHg 34%
    07:00 -17°C° 0 mm 3 mps 588 mmHg 36%
    08:00 -17°C° 0 mm 3 mps 588 mmHg 37%
    09:00 -16°C° 0 mm 3 mps 589 mmHg 39%
    10:00 -14°C° 0 mm 2 mps 589 mmHg 41%
    11:00 -12°C° 0 mm 2 mps 589 mmHg 42%
    12:00 -10°C° 0 mm 2 mps 590 mmHg 43%
    13:00 -9°C° 0 mm 1 mps 589 mmHg 45%
    14:00 -10°C° 0 mm 1 mps 589 mmHg 46%
    15:00 -10°C° 0 mm 1 mps 589 mmHg 48%
    16:00 -11°C° 0 mm 1 mps 589 mmHg 48%
    17:00 -12°C° 0 mm 1 mps 588 mmHg 48%
    18:00 -13°C° 0 mm 1 mps 588 mmHg 49%
    19:00 -14°C° 0 mm 1 mps 588 mmHg 48%
    20:00 -14°C° 0 mm 1 mps 588 mmHg 48%
    21:00 -14°C° 0 mm 1 mps 588 mmHg 48%
    22:00 -15°C° 0 mm 1 mps 588 mmHg 47%
    23:00 -15°C° 0 mm 1 mps 588 mmHg 47%
    Show more